Voltar ao catálogo

THOR DELTA 1 DEB

LostPO
NORAD 33516·DEBRIS·🇺🇸 United States

Lançado Apr 1, 1971 de Vandenberg Space Force Base

Loading…

Próximas Passagens (próximas 24 horas)

TLE

ObsoletoSource: Space-Track

Época: Feb 3, 2017, 02:44 UTC

1 33516U 71024G   17034.11420193  .00000377  00000-0  14395-2 0  9999
2 33516  88.1512  82.6495 0044665 255.6651 135.8716 12.87824406569760

Acompanhe THOR DELTA 1 DEB em tempo real com AllMySat

Download on the App Store